Location: Unspecified
(0.0000°N, 0.0000°E)
Time: 19:04:14
(UTC+00:00)

BlueWalker 3 - Visible Passes

Search period start: 17 July 2024 00:00
Search period end: 27 July 2024 00:00
Orbit: 480 x 491 km, 53.2° (Epoch: 17 July)

Date Brightness Start Highest point End Pass type
(mag) Time Alt. Az. Time Alt. Az. Time Alt. Az.
17 Jul 2.4 19:17:41 10° NNW 19:21:10 38° ENE 19:21:36 36° ENE visible
18 Jul 2.7 18:51:42 10° N 18:55:05 33° ENE 18:57:14 18° ESE visible
19 Jul 4.8 20:06:05 10° WSW 20:06:56 11° SW 20:07:17 10° SW visible
20 Jul 4.6 19:39:18 10° W 19:40:49 12° SW 19:42:19 10° SSW visible
21 Jul 4.6 19:12:44 10° W 19:14:40 14° SW 19:16:38 10° SSW visible
22 Jul 4.1 05:20:43 10° S 05:23:44 22° SE 05:26:43 10° ENE visible
22 Jul 4.5 18:46:16 10° W 18:48:32 15° SW 18:50:48 10° SSW visible
23 Jul 4.2 04:54:46 10° S 04:57:35 20° SE 05:00:23 10° ENE visible
24 Jul 4.3 04:29:39 13° SSE 04:31:25 17° SE 04:33:59 10° E visible
25 Jul 4.5 04:05:18 15° ESE 04:05:18 15° ESE 04:07:32 10° E visible
25 Jul 3.4 05:40:12 10° WSW 05:43:09 21° NW 05:46:05 10° N visible
26 Jul 5.2 03:40:53 10° E 03:40:53 10° E 03:41:00 10° E visible
26 Jul 3.2 05:15:16 18° W 05:16:57 24° NW 05:20:03 10° N visible
